Location: Newark
(36.1358°N, 115.1208°W)
Time: 11:16:07
(UTC+00:00)

Vanguard 1 Rocket - Pass Details

Date: 27 February 2020
Orbit: 650 x 4226 km, 34.3° (Epoch: 06 April)

Event Time Altitude Azimuth Distance (km) Brightness Sun altitude
Rises 08:54:18 0° 248° (WSW) 6,385 - -59.1°
Reaches altitude 10° 08:59:21 10° 247° (WSW) 4,781 - -58.5°
Maximum altitude 09:10:53 66° 168° (SSE) 1,412 - -57.2°
Drops below altitude 10° 09:16:57 10° 87° (E) 2,611 - -56.4°
Sets 09:18:57 0° 84° (E) 3,352 - -56.2°
